Weather History for Cozumel, Mexico

Change the Weather History Date:

Sunday, March 23, 2014

  Actual Average Record
Temperature  
Mean Temperature 75 °F -  
Max Temperature 84 °F 84 °F 89 °F (2005)
Min Temperature 66 °F 71 °F 59 °F (2009)
Cooling Degree Days 10    
Growing Degree Days 25 (Base 50)    
Moisture  
Dew Point 70 °F    
Average Humidity 87    
Maximum Humidity 100    
Minimum Humidity 62    
Precipitation  
Precipitation 0.00 in - - ()
Sea Level Pressure  
Sea Level Pressure 30.03 in    
Wind  
Wind Speed 4 mph ()    
Max Wind Speed 15 mph    
Max Gust Speed -    
Visibility 7.1 miles    
Events      
Averages and records for this station are not official NWS values.
T = Trace of Precipitation, MM = Missing Value Source: Averaged Metar Reports

Daily Weather History Graph

Daily Weather History Graph

Search for Another Location

Airport:

Trip Planner

Search our weather history database for the weather conditions in past years. The results will help you decide how hot, cold, wet, or windy it might be!

Date:

Astronomy

Mar. 23, 2014 Rise Set
Actual Time 5:49 AM CST 5:59 PM CST
Civil Twilight 5:26 AM CST 6:21 PM CST
Nautical Twilight 5:01 AM CST 6:47 PM CST
Astronomical Twilight 4:35 AM CST 7:13 PM CST
Moon No Moon Rise 11:06 AM CST (3/23)
Length of Visible Light 12h 54m
Length of Day
12h 10m
Waning Gibbous, 54% of the Moon is Illuminated
Mar 23
Waning Gibbous
Mar 23
Last Quarter
Mar 30
New
Apr 7
First Quarter
Apr 15
Full

Hourly Weather History & Observations

Time (CST) Temp. Heat Index Dew Point Humidity Pressure Visibility Wind Dir Wind Speed Gust Speed Precip Events Conditions
12:47 AM 69.8 °F - 69.8 °F 100% 30.03 in 7.0 mi Calm Calm - N/A   Partly Cloudy
1:45 AM 69.8 °F - 69.8 °F 100% 30.02 in 7.0 mi Calm Calm - N/A   Partly Cloudy
2:41 AM 68.0 °F - 68.0 °F 100% 30.04 in 7.0 mi ESE 3.5 mph - N/A   Partly Cloudy
3:52 AM 68.0 °F - 68.0 °F 100% 30.00 in 7.0 mi ESE 3.5 mph - N/A   Partly Cloudy
4:54 AM 66.2 °F - 66.2 °F 100% 30.02 in 7.0 mi Calm Calm - N/A   Partly Cloudy
5:47 AM 66.2 °F - 66.2 °F 100% 30.00 in 7.0 mi ESE 3.5 mph - N/A   Partly Cloudy
6:44 AM 69.8 °F - 69.8 °F 100% 30.04 in 7.0 mi ESE 3.5 mph - N/A   Partly Cloudy
7:40 AM 77.0 °F - 71.6 °F 83% 30.05 in 7.0 mi SE 8.1 mph - N/A   Scattered Clouds
8:40 AM 80.6 °F 85.4 °F 73.4 °F 79% 30.09 in 7.0 mi ESE 13.8 mph - N/A   Scattered Clouds
9:40 AM 82.4 °F 87.2 °F 71.6 °F 70% 30.07 in 7.0 mi SSE 8.1 mph - N/A   Scattered Clouds
10:40 AM 82.4 °F 88.2 °F 73.4 °F 74% 30.08 in 7.0 mi SE 10.4 mph - N/A   Scattered Clouds
11:40 AM 84.2 °F 89.6 °F 71.6 °F 66% 30.04 in 7.0 mi SSE 11.5 mph - N/A   Scattered Clouds
12:40 PM 84.2 °F 88.4 °F 69.8 °F 62% 30.02 in 7.0 mi SE 15.0 mph - N/A   Partly Cloudy
1:41 PM 84.2 °F 89.6 °F 71.6 °F 66% 30.01 in 7.0 mi SE 6.9 mph - N/A   Partly Cloudy
2:51 PM 82.4 °F 87.2 °F 71.6 °F 70% 30.02 in 8.0 mi SE 10.4 mph - N/A   Scattered Clouds
3:46 PM 82.4 °F 87.2 °F 71.6 °F 70% 29.99 in 8.0 mi SE 9.2 mph - N/A   Scattered Clouds
4:47 PM 80.6 °F 84.6 °F 71.6 °F 74% 30.01 in 8.0 mi SE 8.1 mph - N/A   Scattered Clouds
5:49 PM 77.0 °F - 71.6 °F 83% 30.00 in 7.0 mi SE 5.8 mph - N/A   Scattered Clouds
6:50 PM 73.4 °F - 71.6 °F 94% 30.03 in 7.0 mi SE 3.5 mph - N/A   Partly Cloudy
7:49 PM 71.6 °F - 69.8 °F 94% 30.04 in 7.0 mi SE 4.6 mph - N/A   Partly Cloudy
8:52 PM 69.8 °F - 69.8 °F 100% 30.08 in 7.0 mi SE 3.5 mph - N/A   Partly Cloudy
9:43 PM 69.8 °F - 69.8 °F 100% 30.05 in 7.0 mi SE 3.5 mph - N/A   Clear
10:45 PM 68.0 °F - 68.0 °F 100% 30.05 in 7.0 mi SE 3.5 mph - N/A   Clear
11:50 PM 68.0 °F - 68.0 °F 100% 30.02 in 7.0 mi Calm Calm - N/A   Clear